Weather History for Pensacola NAS, FL

Change the Weather History Date:

Thursday, October 25, 2012

  Actual Average Record
Temperature  
Mean Temperature 70 °F -  
Max Temperature 81 °F 76 °F 84 °F (2010)
Min Temperature 61 °F 56 °F 32 °F (2004)
Cooling Degree Days 6    
Growing Degree Days 20 (Base 50)    
Moisture  
Dew Point 64 °F    
Average Humidity 84    
Maximum Humidity 100    
Minimum Humidity 56    
Precipitation  
Precipitation 0.00 in - - ()
Sea Level Pressure  
Sea Level Pressure 29.97 in    
Wind  
Wind Speed 5 mph (ENE)    
Max Wind Speed 10 mph    
Max Gust Speed -    
Visibility 10 miles    
Events      
Averages and records for this station are not official NWS values.
T = Trace of Precipitation, MM = Missing Value Source: NWS Daily Summary

Daily Weather History Graph

Daily Weather History Graph

Search for Another Location

Airport:

Trip Planner

Search our weather history database for the weather conditions in past years. The results will help you decide how hot, cold, wet, or windy it might be!

Date:

Astronomy

Oct. 25, 2012 Rise Set
Actual Time 6:58 AM CDT 6:07 PM CDT
Civil Twilight 6:34 AM CDT 6:31 PM CDT
Nautical Twilight 6:06 AM CDT 7:00 PM CDT
Astronomical Twilight 5:38 AM CDT 7:28 PM CDT
Moon 3:40 PM CDT 3:10 AM CDT
Length of Visible Light 11h 57m
Length of Day
11h 08m
Waxing Gibbous, 84% of the Moon is Illuminated
Oct 25
Waxing Gibbous
Oct 29
Full
Nov 6
Last Quarter
Nov 13
New
Nov 20
First Quarter

Hourly Weather History & Observations

Time (CDT) Temp. Heat Index Dew Point Humidity Pressure Visibility Wind Dir Wind Speed Gust Speed Precip Events Conditions
12:56 AM 61.0 °F - 60.1 °F 97% 30.00 in 10.0 mi North 3.5 mph - N/A   Clear
1:56 AM 62.1 °F - 61.0 °F 96% 29.99 in 10.0 mi Calm Calm - N/A   Clear
2:56 AM 62.1 °F - 60.1 °F 93% 29.96 in 10.0 mi NNE 4.6 mph - N/A   Clear
3:56 AM 63.0 °F - 60.1 °F 90% 29.96 in 10.0 mi North 4.6 mph - N/A   Scattered Clouds
4:56 AM 63.0 °F - 61.0 °F 93% 29.96 in 10.0 mi NNE 5.8 mph - N/A   Partly Cloudy
5:56 AM 63.0 °F - 62.1 °F 97% 29.97 in 10.0 mi NE 5.8 mph - N/A   Clear
6:56 AM 64.0 °F - 63.0 °F 96% 29.98 in 10.0 mi NNE 6.9 mph - N/A   Partly Cloudy
7:56 AM 66.9 °F - 64.9 °F 93% 30.00 in 10.0 mi ENE 8.1 mph - N/A   Partly Cloudy
8:56 AM 71.1 °F - 66.9 °F 87% 30.01 in 10.0 mi ENE 9.2 mph - N/A   Clear
9:56 AM 75.0 °F - 66.9 °F 76% 30.01 in 10.0 mi East 10.4 mph - N/A   Scattered Clouds
10:56 AM 77.0 °F - 68.0 °F 74% 30.01 in 10.0 mi East 10.4 mph - N/A   Scattered Clouds
11:56 AM 79.0 °F - 66.9 °F 66% 30.00 in 10.0 mi East 10.4 mph - N/A   Scattered Clouds
12:56 PM 80.1 °F 82.1 °F 66.0 °F 62% 29.98 in 10.0 mi ESE 10.4 mph - N/A   Scattered Clouds
1:56 PM 80.1 °F 81.7 °F 64.0 °F 58% 29.96 in 10.0 mi ESE 8.1 mph - N/A   Scattered Clouds
2:56 PM 80.1 °F 81.5 °F 63.0 °F 56% 29.95 in 10.0 mi SSE 6.9 mph - N/A   Scattered Clouds
3:56 PM 79.0 °F - 66.0 °F 64% 29.94 in 10.0 mi SE 6.9 mph - N/A   Scattered Clouds
4:56 PM 78.1 °F - 64.9 °F 64% 29.94 in 10.0 mi ESE 6.9 mph - N/A   Mostly Cloudy
5:56 PM 73.9 °F - 66.9 °F 79% 29.95 in 10.0 mi South 4.6 mph - N/A   Scattered Clouds
6:56 PM 69.1 °F - 66.9 °F 93% 29.96 in 10.0 mi Calm Calm - N/A   Scattered Clouds
7:56 PM 66.9 °F - 66.0 °F 97% 29.95 in 10.0 mi Calm Calm - N/A   Partly Cloudy
8:56 PM 64.0 °F - 64.0 °F 100% 29.96 in 10.0 mi Calm Calm - N/A   Clear
9:56 PM 62.1 °F - 62.1 °F 100% 29.96 in 10.0 mi Calm Calm - N/A   Clear
10:56 PM 64.9 °F - 64.0 °F 97% 29.95 in 10.0 mi NW 4.6 mph - N/A   Clear
11:56 PM 66.0 °F - 64.9 °F 96% 29.94 in 10.0 mi Calm Calm - N/A   Clear